Time,TemperatureF,DewpointF,PressureIn,WindDirection,WindDirectionDegrees,WindSpeedMPH,WindSpeedGustMPH,Humidity,HourlyPrecipIn,Conditions,Clouds,dailyrainin,SoftwareType,DateUTC
2013-03-03 00:00:00,29.8,12.0,29.89,West,270,0.0,3.0,47,0.00,,,0.00,meteohub,2013-03-03 05:00:00,
2013-03-03 00:01:00,29.8,12.0,29.89,West,270,0.0,4.0,47,0.00,,,0.00,meteohub,2013-03-03 05:01:00,
2013-03-03 00:06:00,29.7,11.8,29.89,West,270,3.0,4.0,47,0.00,,,0.00,meteohub,2013-03-03 05:06:00,
2013-03-03 00:11:00,29.7,11.8,29.89,West,270,3.0,4.0,47,0.00,,,0.00,meteohub,2013-03-03 05:11:00,
2013-03-03 00:16:00,29.8,12.0,29.89,West,270,3.0,4.0,47,0.00,,,0.00,meteohub,2013-03-03 05:16:00,
2013-03-03 00:21:00,29.7,11.8,29.89,West,270,3.0,4.0,47,0.00,,,0.00,meteohub,2013-03-03 05:21:00,
2013-03-03 00:26:00,29.5,11.7,29.89,West,270,2.0,4.0,47,0.00,,,0.00,meteohub,2013-03-03 05:26:00,
2013-03-03 00:31:00,29.5,11.7,29.89,West,270,2.0,4.0,47,0.00,,,0.00,meteohub,2013-03-03 05:31:00,
2013-03-03 00:36:00,29.3,11.5,29.89,West,270,2.0,4.0,47,0.00,,,0.00,meteohub,2013-03-03 05:36:00,
2013-03-03 00:41:00,29.3,11.5,29.89,West,270,0.0,3.0,47,0.00,,,0.00,meteohub,2013-03-03 05:41:00,
2013-03-03 00:46:00,29.3,11.5,29.89,West,270,2.0,3.0,47,0.00,,,0.00,meteohub,2013-03-03 05:46:00,
2013-03-03 00:51:00,29.1,11.5,29.89,West,270,0.0,3.0,47,0.00,,,0.00,meteohub,2013-03-03 05:51:00,
2013-03-03 00:56:00,28.9,11.3,29.89,West,270,2.0,4.0,47,0.00,,,0.00,meteohub,2013-03-03 05:56:00,
2013-03-03 01:01:00,28.9,11.3,29.89,West,270,0.0,4.0,47,0.00,,,0.00,meteohub,2013-03-03 06:01:00,
2013-03-03 01:06:00,28.8,11.1,29.89,West,270,0.0,4.0,47,0.00,,,0.00,meteohub,2013-03-03 06:06:00,
2013-03-03 01:12:00,28.8,11.1,29.89,West,270,2.0,3.0,47,0.00,,,0.00,meteohub,2013-03-03 06:12:00,
2013-03-03 01:17:00,28.6,11.3,29.89,West,270,3.0,4.0,48,0.00,,,0.00,meteohub,2013-03-03 06:17:00,
2013-03-03 01:22:00,28.6,11.3,29.89,West,270,0.0,4.0,48,0.00,,,0.00,meteohub,2013-03-03 06:22:00,
2013-03-03 01:27:00,28.6,11.3,29.89,West,270,0.0,4.0,48,0.00,,,0.00,meteohub,2013-03-03 06:27:00,
2013-03-03 01:32:00,28.4,11.3,29.89,West,270,3.0,3.0,48,0.00,,,0.00,meteohub,2013-03-03 06:32:00,
2013-03-03 01:37:00,28.4,11.3,29.89,West,270,3.0,3.0,48,0.00,,,0.00,meteohub,2013-03-03 06:37:00,
2013-03-03 01:42:00,28.2,11.5,29.89,West,270,0.0,3.0,49,0.00,,,0.00,meteohub,2013-03-03 06:42:00,
2013-03-03 01:47:00,28.2,11.5,29.89,West,270,0.0,3.0,49,0.00,,,0.00,meteohub,2013-03-03 06:47:00,
2013-03-03 01:52:00,28.2,11.5,29.89,West,270,2.0,4.0,49,0.00,,,0.00,meteohub,2013-03-03 06:52:00,
2013-03-03 01:57:00,28.4,11.7,29.89,West,270,2.0,4.0,49,0.00,,,0.00,meteohub,2013-03-03 06:57:00,
2013-03-03 02:02:00,28.4,11.7,29.89,West,270,2.0,4.0,49,0.00,,,0.00,meteohub,2013-03-03 07:02:00,
2013-03-03 02:07:00,28.2,11.5,29.89,West,270,0.0,3.0,49,0.00,,,0.00,meteohub,2013-03-03 07:07:00,
2013-03-03 02:12:00,28.2,11.5,29.89,West,270,3.0,3.0,49,0.00,,,0.00,meteohub,2013-03-03 07:12:00,
2013-03-03 02:17:00,28.2,11.5,29.89,West,270,0.0,3.0,49,0.00,,,0.00,meteohub,2013-03-03 07:17:00,
2013-03-03 02:22:00,28.0,11.8,29.89,West,270,0.0,3.0,50,0.00,,,0.00,meteohub,2013-03-03 07:22:00,
2013-03-03 02:27:00,27.9,11.7,29.89,West,270,0.0,3.0,50,0.00,,,0.00,meteohub,2013-03-03 07:27:00,
2013-03-03 02:32:00,27.9,12.0,29.89,West,270,0.0,3.0,51,0.00,,,0.00,meteohub,2013-03-03 07:32:00,
2013-03-03 02:37:00,27.9,12.0,29.89,West,270,2.0,2.0,51,0.00,,,0.00,meteohub,2013-03-03 07:37:00,
2013-03-03 02:42:00,27.9,12.0,29.89,West,270,0.0,2.0,51,0.00,,,0.00,meteohub,2013-03-03 07:42:00,
2013-03-03 02:47:00,28.0,12.2,29.89,West,270,2.0,2.0,51,0.00,,,0.00,meteohub,2013-03-03 07:47:00,
2013-03-03 02:52:00,28.2,12.4,29.89,West,270,2.0,3.0,51,0.00,,,0.00,meteohub,2013-03-03 07:52:00,
2013-03-03 02:57:00,28.4,12.6,29.86,West,270,0.0,3.0,51,0.00,,,0.00,meteohub,2013-03-03 07:57:00,
2013-03-03 03:02:00,28.4,12.6,29.86,West,270,0.0,3.0,51,0.00,,,0.00,meteohub,2013-03-03 08:02:00,
2013-03-03 03:07:00,28.4,12.6,29.86,West,270,0.0,3.0,51,0.00,,,0.00,meteohub,2013-03-03 08:07:00,
2013-03-03 03:12:00,28.6,12.4,29.89,West,270,0.0,2.0,50,0.00,,,0.00,meteohub,2013-03-03 08:12:00,
2013-03-03 03:17:00,28.8,12.4,29.89,West,270,3.0,3.0,50,0.00,,,0.00,meteohub,2013-03-03 08:17:00,
2013-03-03 03:22:00,28.8,12.4,29.89,West,270,3.0,3.0,50,0.00,,,0.00,meteohub,2013-03-03 08:22:00,
2013-03-03 03:27:00,29.1,12.7,29.86,West,270,3.0,3.0,50,0.00,,,0.00,meteohub,2013-03-03 08:27:00,
2013-03-03 03:32:00,29.1,12.7,29.86,West,270,0.0,4.0,50,0.00,,,0.00,meteohub,2013-03-03 08:32:00,
2013-03-03 03:37:00,29.1,12.7,29.86,West,270,0.0,4.0,50,0.00,,,0.00,meteohub,2013-03-03 08:37:00,
2013-03-03 03:42:00,29.1,12.4,29.86,West,270,2.0,3.0,49,0.00,,,0.00,meteohub,2013-03-03 08:42:00,
2013-03-03 03:47:00,29.3,12.6,29.86,West,270,0.0,3.0,49,0.00,,,0.00,meteohub,2013-03-03 08:47:00,
2013-03-03 03:52:00,29.1,12.4,29.86,West,270,2.0,3.0,49,0.00,,,0.00,meteohub,2013-03-03 08:52:00,
2013-03-03 03:57:00,29.3,12.9,29.89,West,270,0.0,3.0,50,0.00,,,0.00,meteohub,2013-03-03 08:57:00,
2013-03-03 04:02:00,29.3,12.9,29.89,West,270,2.0,3.0,50,0.00,,,0.00,meteohub,2013-03-03 09:02:00,
2013-03-03 04:07:00,29.3,12.9,29.89,West,270,0.0,3.0,50,0.00,,,0.00,meteohub,2013-03-03 09:07:00,
2013-03-03 04:12:00,29.5,12.7,29.89,West,270,3.0,3.0,49,0.00,,,0.00,meteohub,2013-03-03 09:12:00,
2013-03-03 04:17:00,29.5,13.1,29.89,West,270,3.0,3.0,50,0.00,,,0.00,meteohub,2013-03-03 09:17:00,
2013-03-03 04:22:00,29.7,12.9,29.89,West,270,2.0,3.0,49,0.00,,,0.00,meteohub,2013-03-03 09:22:00,
2013-03-03 04:27:00,29.8,12.9,29.89,West,270,2.0,3.0,49,0.00,,,0.00,meteohub,2013-03-03 09:27:00,
2013-03-03 04:32:00,29.8,12.9,29.89,West,270,3.0,3.0,49,0.00,,,0.00,meteohub,2013-03-03 09:32:00,
2013-03-03 04:37:00,30.0,12.7,29.89,West,270,0.0,3.0,48,0.00,,,0.00,meteohub,2013-03-03 09:37:00,
2013-03-03 04:42:00,30.0,13.1,29.89,West,270,3.0,4.0,49,0.00,,,0.00,meteohub,2013-03-03 09:42:00,
2013-03-03 04:47:00,30.0,12.7,29.89,West,270,3.0,4.0,48,0.00,,,0.00,meteohub,2013-03-03 09:47:00,
2013-03-03 04:52:00,30.0,12.7,29.89,West,270,3.0,4.0,48,0.00,,,0.00,meteohub,2013-03-03 09:52:00,
2013-03-03 04:57:00,30.0,12.7,29.89,West,270,3.0,4.0,48,0.00,,,0.00,meteohub,2013-03-03 09:57:00,
2013-03-03 05:02:00,30.0,12.7,29.89,West,270,4.0,4.0,48,0.00,,,0.00,meteohub,2013-03-03 10:02:00,
2013-03-03 05:07:00,30.2,12.9,29.89,West,270,2.0,4.0,48,0.00,,,0.00,meteohub,2013-03-03 10:07:00,
2013-03-03 05:12:00,30.2,12.4,29.89,West,270,3.0,4.0,47,0.00,,,0.00,meteohub,2013-03-03 10:12:00,
2013-03-03 05:17:00,30.2,12.4,29.89,West,270,3.0,4.0,47,0.00,,,0.00,meteohub,2013-03-03 10:17:00,
2013-03-03 05:22:00,30.2,12.4,29.89,West,270,2.0,4.0,47,0.00,,,0.00,meteohub,2013-03-03 10:22:00,
2013-03-03 05:27:00,30.2,12.4,29.89,West,270,0.0,4.0,47,0.00,,,0.00,meteohub,2013-03-03 10:27:00,
2013-03-03 05:32:00,30.2,12.4,29.89,West,270,3.0,4.0,47,0.00,,,0.00,meteohub,2013-03-03 10:32:00,
2013-03-03 05:38:00,30.4,12.6,29.89,West,270,3.0,3.0,47,0.00,,,0.00,meteohub,2013-03-03 10:38:00,
2013-03-03 05:43:00,30.4,12.0,29.89,West,270,3.0,4.0,46,0.00,,,0.00,meteohub,2013-03-03 10:43:00,
2013-03-03 05:48:00,30.4,12.0,29.89,West,270,0.0,4.0,46,0.00,,,0.00,meteohub,2013-03-03 10:48:00,
2013-03-03 05:53:00,30.4,12.0,29.89,West,270,2.0,4.0,46,0.00,,,0.00,meteohub,2013-03-03 10:53:00,
2013-03-03 05:58:00,30.4,12.0,29.89,West,270,4.0,4.0,46,0.00,,,0.00,meteohub,2013-03-03 10:58:00,
2013-03-03 06:03:00,30.6,12.2,29.89,West,270,3.0,4.0,46,0.00,,,0.00,meteohub,2013-03-03 11:03:00,
2013-03-03 06:08:00,30.6,12.2,29.89,West,270,2.0,4.0,46,0.00,,,0.00,meteohub,2013-03-03 11:08:00,
2013-03-03 06:13:00,30.6,12.7,29.89,West,270,3.0,4.0,47,0.00,,,0.00,meteohub,2013-03-03 11:13:00,
2013-03-03 06:18:00,30.6,12.7,29.89,West,270,2.0,4.0,47,0.00,,,0.00,meteohub,2013-03-03 11:18:00,
2013-03-03 06:23:00,30.6,12.7,29.89,West,270,0.0,4.0,47,0.00,,,0.00,meteohub,2013-03-03 11:23:00,
2013-03-03 06:28:00,30.4,12.6,29.89,West,270,0.0,4.0,47,0.00,,,0.00,meteohub,2013-03-03 11:28:00,
2013-03-03 06:33:00,30.4,12.6,29.89,West,270,0.0,4.0,47,0.00,,,0.00,meteohub,2013-03-03 11:33:00,
2013-03-03 06:38:00,30.4,13.1,29.89,West,270,0.0,3.0,48,0.00,,,0.00,meteohub,2013-03-03 11:38:00,
2013-03-03 06:43:00,30.2,12.9,29.89,West,270,0.0,3.0,48,0.00,,,0.00,meteohub,2013-03-03 11:43:00,
2013-03-03 06:48:00,30.2,13.3,29.89,West,270,0.0,0.0,49,0.00,,,0.00,meteohub,2013-03-03 11:48:00,
2013-03-03 06:53:00,30.0,13.1,29.89,West,270,0.0,2.0,49,0.00,,,0.00,meteohub,2013-03-03 11:53:00,
2013-03-03 06:58:00,30.0,13.1,29.89,West,270,0.0,2.0,49,0.00,,,0.00,meteohub,2013-03-03 11:58:00,
2013-03-03 07:03:00,30.2,13.3,29.89,West,270,2.0,3.0,49,0.00,,,0.00,meteohub,2013-03-03 12:03:00,
2013-03-03 07:08:00,30.2,13.3,29.89,West,270,0.0,4.0,49,0.00,,,0.00,meteohub,2013-03-03 12:08:00,
2013-03-03 07:13:00,30.2,13.3,29.89,West,270,0.0,4.0,49,0.00,,,0.00,meteohub,2013-03-03 12:13:00,
2013-03-03 07:18:00,30.2,13.3,29.89,West,270,0.0,4.0,49,0.00,,,0.00,meteohub,2013-03-03 12:18:00,
2013-03-03 07:23:00,30.4,13.5,29.89,West,270,0.0,2.0,49,0.00,,,0.00,meteohub,2013-03-03 12:23:00,
2013-03-03 07:28:00,30.6,13.3,29.92,West,270,2.0,2.0,48,0.00,,,0.00,meteohub,2013-03-03 12:28:00,
2013-03-03 07:33:00,30.7,13.3,29.92,West,270,3.0,3.0,48,0.00,,,0.00,meteohub,2013-03-03 12:33:00,
2013-03-03 07:38:00,30.9,13.1,29.92,West,270,3.0,3.0,47,0.00,,,0.00,meteohub,2013-03-03 12:38:00,
2013-03-03 07:43:00,31.1,13.3,29.92,West,270,0.0,3.0,47,0.00,,,0.00,meteohub,2013-03-03 12:43:00,
2013-03-03 07:48:00,31.1,12.7,29.92,West,270,0.0,3.0,46,0.00,,,0.00,meteohub,2013-03-03 12:48:00,
2013-03-03 07:53:00,31.5,13.1,29.92,West,270,0.0,3.0,46,0.00,,,0.00,meteohub,2013-03-03 12:53:00,
2013-03-03 07:59:00,32.4,13.5,29.92,West,270,0.0,3.0,45,0.00,,,0.00,meteohub,2013-03-03 12:59:00,
2013-03-03 08:04:00,33.3,13.6,29.92,West,270,3.0,3.0,44,0.00,,,0.00,meteohub,2013-03-03 13:04:00,
2013-03-03 08:09:00,33.8,13.1,29.92,West,270,3.0,4.0,42,0.00,,,0.00,meteohub,2013-03-03 13:09:00,
2013-03-03 08:14:00,34.9,13.6,29.92,NNE,22,3.0,5.0,41,0.00,,,0.00,meteohub,2013-03-03 13:14:00,
2013-03-03 08:19:00,35.2,13.8,29.92,NNE,22,4.0,6.0,41,0.00,,,0.00,meteohub,2013-03-03 13:19:00,
2013-03-03 08:24:00,35.6,13.6,29.92,NNW,338,0.0,6.0,40,0.00,,,0.00,meteohub,2013-03-03 13:24:00,
2013-03-03 08:29:00,35.8,13.8,29.92,North,0,7.0,7.0,40,0.00,,,0.00,meteohub,2013-03-03 13:29:00,
2013-03-03 08:34:00,35.6,13.1,29.92,NNW,338,3.0,9.0,39,0.00,,,0.00,meteohub,2013-03-03 13:34:00,
2013-03-03 08:39:00,35.2,13.3,29.92,NNE,22,5.0,9.0,40,0.00,,,0.00,meteohub,2013-03-03 13:39:00,
2013-03-03 08:44:00,35.4,13.5,29.92,SSE,158,6.0,9.0,40,0.00,,,0.00,meteohub,2013-03-03 13:44:00,
2013-03-03 08:49:00,35.6,13.1,29.92,NE,45,4.0,9.0,39,0.00,,,0.00,meteohub,2013-03-03 13:49:00,
2013-03-03 08:54:00,36.0,13.5,29.92,NNW,338,2.0,9.0,39,0.00,,,0.00,meteohub,2013-03-03 13:54:00,
2013-03-03 08:59:00,36.3,13.1,29.92,North,0,2.0,9.0,38,0.00,,,0.00,meteohub,2013-03-03 13:59:00,
2013-03-03 09:04:00,36.7,13.5,29.92,NNW,338,7.0,8.0,38,0.00,,,0.00,meteohub,2013-03-03 14:04:00,
2013-03-03 09:09:00,36.9,13.6,29.92,NNE,22,4.0,8.0,38,0.00,,,0.00,meteohub,2013-03-03 14:09:00,
2013-03-03 09:14:00,37.0,13.8,29.92,NNW,338,0.0,7.0,38,0.00,,,0.00,meteohub,2013-03-03 14:14:00,
2013-03-03 09:19:00,37.2,13.3,29.92,ESE,112,3.0,9.0,37,0.00,,,0.00,meteohub,2013-03-03 14:19:00,
2013-03-03 09:24:00,37.2,13.3,29.92,NNE,22,6.0,9.0,37,0.00,,,0.00,meteohub,2013-03-03 14:24:00,
2013-03-03 09:29:00,37.6,13.1,29.92,North,0,6.0,9.0,36,0.00,,,0.00,meteohub,2013-03-03 14:29:00,
2013-03-03 09:34:00,37.4,12.2,29.92,NE,45,6.0,9.0,35,0.00,,,0.00,meteohub,2013-03-03 14:34:00,
2013-03-03 09:39:00,37.9,13.3,29.92,WNW,292,4.0,11.0,36,0.00,,,0.00,meteohub,2013-03-03 14:39:00,
2013-03-03 09:44:00,37.4,12.2,29.92,NE,45,5.0,11.0,35,0.00,,,0.00,meteohub,2013-03-03 14:44:00,
2013-03-03 09:49:00,37.6,13.1,29.92,SW,225,5.0,11.0,36,0.00,,,0.00,meteohub,2013-03-03 14:49:00,
2013-03-03 09:54:00,37.9,12.7,29.92,NE,45,10.0,11.0,35,0.00,,,0.00,meteohub,2013-03-03 14:54:00,
2013-03-03 09:59:00,37.2,12.0,29.92,NNW,338,6.0,11.0,35,0.00,,,0.00,meteohub,2013-03-03 14:59:00,
2013-03-03 10:04:00,37.9,12.7,29.92,NNE,22,8.0,11.0,35,0.00,,,0.00,meteohub,2013-03-03 15:04:00,
2013-03-03 10:09:00,38.5,13.3,29.92,NE,45,8.0,11.0,35,0.00,,,0.00,meteohub,2013-03-03 15:09:00,
2013-03-03 10:14:00,39.4,13.3,29.92,NNW,338,4.0,11.0,34,0.00,,,0.00,meteohub,2013-03-03 15:14:00,
2013-03-03 10:19:00,39.4,12.7,29.92,NNE,22,3.0,10.0,33,0.00,,,0.00,meteohub,2013-03-03 15:19:00,
2013-03-03 10:24:00,39.0,12.4,29.92,NNW,338,3.0,10.0,33,0.00,,,0.00,meteohub,2013-03-03 15:24:00,
2013-03-03 10:29:00,39.9,13.1,29.92,NNE,22,4.0,9.0,33,0.00,,,0.00,meteohub,2013-03-03 15:29:00,
2013-03-03 10:34:00,40.6,13.8,29.92,NE,45,5.0,9.0,33,0.00,,,0.00,meteohub,2013-03-03 15:34:00,
2013-03-03 10:39:00,39.7,12.2,29.92,NE,45,5.0,8.0,32,0.00,,,0.00,meteohub,2013-03-03 15:39:00,
2013-03-03 10:44:00,39.2,12.6,29.92,NNE,22,3.0,11.0,33,0.00,,,0.00,meteohub,2013-03-03 15:44:00,
2013-03-03 10:49:00,40.5,13.6,29.92,NW,315,3.0,11.0,33,0.00,,,0.00,meteohub,2013-03-03 15:49:00,
2013-03-03 10:54:00,39.4,12.0,29.92,NNW,338,4.0,11.0,32,0.00,,,0.00,meteohub,2013-03-03 15:54:00,
2013-03-03 10:59:00,39.7,12.9,29.89,NNE,22,8.0,9.0,33,0.00,,,0.00,meteohub,2013-03-03 15:59:00,
2013-03-03 11:04:00,39.4,12.0,29.89,NE,45,3.0,9.0,32,0.00,,,0.00,meteohub,2013-03-03 16:04:00,
2013-03-03 11:09:00,40.6,13.8,29.89,East,90,3.0,8.0,33,0.00,,,0.00,meteohub,2013-03-03 16:09:00,
2013-03-03 11:14:00,40.6,13.1,29.89,WSW,248,3.0,8.0,32,0.00,,,0.00,meteohub,2013-03-03 16:14:00,
2013-03-03 11:19:00,39.7,12.2,29.89,SSW,202,0.0,8.0,32,0.00,,,0.00,meteohub,2013-03-03 16:19:00,
2013-03-03 11:24:00,39.7,12.2,29.89,NNE,22,8.0,10.0,32,0.00,,,0.00,meteohub,2013-03-03 16:24:00,
2013-03-03 11:29:00,40.8,13.3,29.89,NE,45,7.0,10.0,32,0.00,,,0.00,meteohub,2013-03-03 16:29:00,
2013-03-03 11:34:00,41.0,12.7,29.89,WSW,248,5.0,10.0,31,0.00,,,0.00,meteohub,2013-03-03 16:34:00,
2013-03-03 11:39:00,40.1,12.6,29.89,NNW,338,4.0,8.0,32,0.00,,,0.00,meteohub,2013-03-03 16:39:00,
2013-03-03 11:44:00,40.3,12.7,29.89,North,0,3.0,8.0,32,0.00,,,0.00,meteohub,2013-03-03 16:44:00,
2013-03-03 11:49:00,40.5,12.9,29.89,SE,135,3.0,8.0,32,0.00,,,0.00,meteohub,2013-03-03 16:49:00,
2013-03-03 11:54:00,42.4,14.7,29.89,NNW,338,4.0,6.0,32,0.00,,,0.00,meteohub,2013-03-03 16:54:00,
2013-03-03 11:59:00,41.4,12.9,29.89,WNW,292,6.0,6.0,31,0.00,,,0.00,meteohub,2013-03-03 16:59:00,
2013-03-03 12:04:00,41.4,12.9,29.89,NE,45,5.0,8.0,31,0.00,,,0.00,meteohub,2013-03-03 17:04:00,
2013-03-03 12:09:00,40.6,12.4,29.89,NNE,22,8.0,8.0,31,0.00,,,0.00,meteohub,2013-03-03 17:09:00,
2013-03-03 12:15:00,41.2,13.5,29.89,SSE,158,6.0,11.0,32,0.00,,,0.00,meteohub,2013-03-03 17:15:00,
2013-03-03 12:20:00,41.0,13.5,29.89,West,270,0.0,11.0,32,0.00,,,0.00,meteohub,2013-03-03 17:20:00,
2013-03-03 12:25:00,41.7,13.3,29.89,West,270,5.0,11.0,31,0.00,,,0.00,meteohub,2013-03-03 17:25:00,
2013-03-03 12:30:00,41.7,13.3,29.89,NE,45,4.0,8.0,31,0.00,,,0.00,meteohub,2013-03-03 17:30:00,
2013-03-03 12:35:00,42.8,13.5,29.89,West,270,3.0,8.0,30,0.00,,,0.00,meteohub,2013-03-03 17:35:00,
2013-03-03 12:40:00,43.7,14.4,29.89,ESE,112,3.0,10.0,30,0.00,,,0.00,meteohub,2013-03-03 17:40:00,
2013-03-03 12:45:00,44.4,14.9,29.86,WNW,292,7.0,10.0,30,0.00,,,0.00,meteohub,2013-03-03 17:45:00,
2013-03-03 12:50:00,45.1,14.7,29.86,WSW,248,7.0,10.0,29,0.00,,,0.00,meteohub,2013-03-03 17:50:00,
2013-03-03 12:55:00,44.6,14.4,29.86,West,270,8.0,10.0,29,0.00,,,0.00,meteohub,2013-03-03 17:55:00,
2013-03-03 13:00:00,43.0,12.9,29.86,SSW,202,3.0,9.0,29,0.00,,,0.00,meteohub,2013-03-03 18:00:00,
2013-03-03 13:05:00,43.9,14.4,29.86,NW,315,4.0,8.0,30,0.00,,,0.00,meteohub,2013-03-03 18:05:00,
2013-03-03 13:10:00,44.2,14.0,29.86,NNE,22,6.0,11.0,29,0.00,,,0.00,meteohub,2013-03-03 18:10:00,
2013-03-03 13:15:00,45.5,15.1,29.86,SW,225,4.0,11.0,29,0.00,,,0.00,meteohub,2013-03-03 18:15:00,
2013-03-03 13:20:00,45.7,15.3,29.86,WSW,248,3.0,8.0,29,0.00,,,0.00,meteohub,2013-03-03 18:20:00,
2013-03-03 13:25:00,45.1,14.7,29.86,WSW,248,4.0,10.0,29,0.00,,,0.00,meteohub,2013-03-03 18:25:00,
2013-03-03 13:30:00,46.2,15.6,29.86,WNW,292,2.0,10.0,29,0.00,,,0.00,meteohub,2013-03-03 18:30:00,
2013-03-03 13:35:00,45.9,15.4,29.86,WSW,248,5.0,10.0,29,0.00,,,0.00,meteohub,2013-03-03 18:35:00,
2013-03-03 13:40:00,47.8,17.1,29.86,WSW,248,7.0,8.0,29,0.00,,,0.00,meteohub,2013-03-03 18:40:00,
2013-03-03 13:45:00,46.9,16.3,29.83,WSW,248,8.0,10.0,29,0.00,,,0.00,meteohub,2013-03-03 18:45:00,
2013-03-03 13:50:00,46.8,15.4,29.83,NNE,22,0.0,11.0,28,0.00,,,0.00,meteohub,2013-03-03 18:50:00,
2013-03-03 13:55:00,46.2,14.9,29.83,NNW,338,6.0,13.0,28,0.00,,,0.00,meteohub,2013-03-03 18:55:00,
2013-03-03 14:00:00,46.9,15.4,29.83,SW,225,8.0,13.0,28,0.00,,,0.00,meteohub,2013-03-03 19:00:00,
2013-03-03 14:05:00,46.6,16.0,29.83,WSW,248,3.0,13.0,29,0.00,,,0.00,meteohub,2013-03-03 19:05:00,
2013-03-03 14:10:00,47.5,16.0,29.83,North,0,5.0,13.0,28,0.00,,,0.00,meteohub,2013-03-03 19:10:00,
2013-03-03 14:15:00,47.5,16.0,29.83,West,270,5.0,9.0,28,0.00,,,0.00,meteohub,2013-03-03 19:15:00,
2013-03-03 14:20:00,47.1,15.6,29.83,NW,315,3.0,8.0,28,0.00,,,0.00,meteohub,2013-03-03 19:20:00,
2013-03-03 14:25:00,48.0,16.5,29.83,NNE,22,3.0,8.0,28,0.00,,,0.00,meteohub,2013-03-03 19:25:00,
2013-03-03 14:30:00,48.0,16.5,29.83,NE,45,7.0,9.0,28,0.00,,,0.00,meteohub,2013-03-03 19:30:00,
2013-03-03 14:35:00,48.6,16.2,29.83,NNE,22,4.0,9.0,27,0.00,,,0.00,meteohub,2013-03-03 19:35:00,
2013-03-03 14:40:00,48.0,16.5,29.83,WSW,248,5.0,9.0,28,0.00,,,0.00,meteohub,2013-03-03 19:40:00,
2013-03-03 14:45:00,47.7,16.2,29.83,WSW,248,13.0,13.0,28,0.00,,,0.00,meteohub,2013-03-03 19:45:00,
2013-03-03 14:50:00,48.2,16.5,29.83,WSW,248,6.0,14.0,28,0.00,,,0.00,meteohub,2013-03-03 19:50:00,
2013-03-03 14:55:00,47.8,16.3,29.83,WSW,248,10.0,14.0,28,0.00,,,0.00,meteohub,2013-03-03 19:55:00,
2013-03-03 15:00:00,47.3,15.8,29.83,South,180,4.0,14.0,28,0.00,,,0.00,meteohub,2013-03-03 20:00:00,
2013-03-03 15:05:00,48.6,16.9,29.83,WSW,248,8.0,10.0,28,0.00,,,0.00,meteohub,2013-03-03 20:05:00,
2013-03-03 15:10:00,48.4,16.0,29.83,NNW,338,5.0,10.0,27,0.00,,,0.00,meteohub,2013-03-03 20:10:00,
2013-03-03 15:15:00,47.8,16.3,29.83,North,0,4.0,9.0,28,0.00,,,0.00,meteohub,2013-03-03 20:15:00,
2013-03-03 15:20:00,48.4,16.0,29.83,NE,45,4.0,9.0,27,0.00,,,0.00,meteohub,2013-03-03 20:20:00,
2013-03-03 15:25:00,48.2,15.8,29.83,WSW,248,3.0,8.0,27,0.00,,,0.00,meteohub,2013-03-03 20:25:00,
2013-03-03 15:30:00,48.4,16.0,29.83,NE,45,4.0,8.0,27,0.00,,,0.00,meteohub,2013-03-03 20:30:00,
2013-03-03 15:35:00,47.1,15.6,29.83,ESE,112,4.0,8.0,28,0.00,,,0.00,meteohub,2013-03-03 20:35:00,
2013-03-03 15:40:00,47.5,16.0,29.83,NNE,22,4.0,8.0,28,0.00,,,0.00,meteohub,2013-03-03 20:40:00,
2013-03-03 15:45:00,47.1,14.9,29.83,SW,225,8.0,8.0,27,0.00,,,0.00,meteohub,2013-03-03 20:45:00,
2013-03-03 15:50:00,48.0,16.5,29.83,West,270,3.0,12.0,28,0.00,,,0.00,meteohub,2013-03-03 20:50:00,
2013-03-03 15:55:00,48.7,16.2,29.83,North,0,3.0,12.0,27,0.00,,,0.00,meteohub,2013-03-03 20:55:00,
2013-03-03 16:01:00,48.4,16.0,29.83,SSW,202,4.0,11.0,27,0.00,,,0.00,meteohub,2013-03-03 21:01:00,
2013-03-03 16:06:00,48.2,15.8,29.83,West,270,8.0,8.0,27,0.00,,,0.00,meteohub,2013-03-03 21:06:00,
2013-03-03 16:11:00,46.9,14.7,29.83,WSW,248,7.0,8.0,27,0.00,,,0.00,meteohub,2013-03-03 21:11:00,
2013-03-03 16:16:00,47.3,15.8,29.83,ENE,68,3.0,8.0,28,0.00,,,0.00,meteohub,2013-03-03 21:16:00,
2013-03-03 16:21:00,47.3,15.1,29.83,West,270,4.0,8.0,27,0.00,,,0.00,meteohub,2013-03-03 21:21:00,
2013-03-03 16:26:00,47.1,14.9,29.83,West,270,6.0,8.0,27,0.00,,,0.00,meteohub,2013-03-03 21:26:00,
2013-03-03 16:31:00,47.7,15.3,29.83,WNW,292,3.0,10.0,27,0.00,,,0.00,meteohub,2013-03-03 21:31:00,
2013-03-03 16:36:00,48.0,15.6,29.83,NNE,22,5.0,10.0,27,0.00,,,0.00,meteohub,2013-03-03 21:36:00,
2013-03-03 16:41:00,48.4,16.0,29.83,WNW,292,5.0,9.0,27,0.00,,,0.00,meteohub,2013-03-03 21:41:00,
2013-03-03 16:46:00,48.4,16.0,29.83,SSW,202,2.0,7.0,27,0.00,,,0.00,meteohub,2013-03-03 21:46:00,
2013-03-03 16:51:00,47.7,15.3,29.83,WSW,248,4.0,7.0,27,0.00,,,0.00,meteohub,2013-03-03 21:51:00,
2013-03-03 16:56:00,46.4,14.2,29.83,WSW,248,3.0,8.0,27,0.00,,,0.00,meteohub,2013-03-03 21:56:00,
2013-03-03 17:01:00,45.9,14.5,29.83,West,270,10.0,10.0,28,0.00,,,0.00,meteohub,2013-03-03 22:01:00,
2013-03-03 17:06:00,46.4,14.2,29.83,ESE,112,5.0,11.0,27,0.00,,,0.00,meteohub,2013-03-03 22:06:00,
2013-03-03 17:11:00,45.1,14.0,29.83,West,270,5.0,11.0,28,0.00,,,0.00,meteohub,2013-03-03 22:11:00,
2013-03-03 17:16:00,44.6,13.5,29.83,West,270,7.0,11.0,28,0.00,,,0.00,meteohub,2013-03-03 22:16:00,
2013-03-03 17:21:00,44.4,14.2,29.83,SSE,158,6.0,11.0,29,0.00,,,0.00,meteohub,2013-03-03 22:21:00,
2013-03-03 17:26:00,44.1,13.8,29.83,NW,315,6.0,11.0,29,0.00,,,0.00,meteohub,2013-03-03 22:26:00,
2013-03-03 17:31:00,43.3,13.3,29.83,West,270,5.0,11.0,29,0.00,,,0.00,meteohub,2013-03-03 22:31:00,
2013-03-03 17:36:00,43.0,12.9,29.83,NW,315,3.0,9.0,29,0.00,,,0.00,meteohub,2013-03-03 22:36:00,
2013-03-03 17:41:00,42.4,12.4,29.86,WSW,248,4.0,8.0,29,0.00,,,0.00,meteohub,2013-03-03 22:41:00,
2013-03-03 17:46:00,42.1,12.0,29.86,West,270,0.0,8.0,29,0.00,,,0.00,meteohub,2013-03-03 22:46:00,
2013-03-03 17:51:00,41.5,11.7,29.86,West,270,0.0,8.0,29,0.00,,,0.00,meteohub,2013-03-03 22:51:00,
2013-03-03 17:56:00,41.2,11.3,29.86,North,0,0.0,6.0,29,0.00,,,0.00,meteohub,2013-03-03 22:56:00,
2013-03-03 18:01:00,40.8,11.8,29.86,West,270,3.0,5.0,30,0.00,,,0.00,meteohub,2013-03-03 23:01:00,
2013-03-03 18:06:00,40.5,11.5,29.86,NNW,338,2.0,6.0,30,0.00,,,0.00,meteohub,2013-03-03 23:06:00,
2013-03-03 18:11:00,39.9,10.9,29.86,North,0,0.0,6.0,30,0.00,,,0.00,meteohub,2013-03-03 23:11:00,
2013-03-03 18:16:00,39.6,11.5,29.86,North,0,0.0,6.0,31,0.00,,,0.00,meteohub,2013-03-03 23:16:00,
2013-03-03 18:21:00,39.4,11.3,29.86,NNW,338,2.0,6.0,31,0.00,,,0.00,meteohub,2013-03-03 23:21:00,
2013-03-03 18:26:00,39.2,11.1,29.89,NNW,338,0.0,9.0,31,0.00,,,0.00,meteohub,2013-03-03 23:26:00,
2013-03-03 18:31:00,38.8,10.8,29.89,WNW,292,3.0,9.0,31,0.00,,,0.00,meteohub,2013-03-03 23:31:00,
2013-03-03 18:36:00,38.5,11.1,29.89,WSW,248,2.0,9.0,32,0.00,,,0.00,meteohub,2013-03-03 23:36:00,
2013-03-03 18:41:00,38.5,11.1,29.89,North,0,3.0,8.0,32,0.00,,,0.00,meteohub,2013-03-03 23:41:00,
2013-03-03 18:46:00,38.1,10.9,29.89,NE,45,3.0,8.0,32,0.00,,,0.00,meteohub,2013-03-03 23:46:00,
2013-03-03 18:51:00,37.9,10.8,29.89,North,0,0.0,11.0,32,0.00,,,0.00,meteohub,2013-03-03 23:51:00,
2013-03-03 18:56:00,37.6,11.1,29.89,WNW,292,4.0,11.0,33,0.00,,,0.00,meteohub,2013-03-03 23:56:00,
2013-03-03 19:01:00,37.4,10.9,29.89,SW,225,0.0,6.0,33,0.00,,,0.00,meteohub,2013-03-04 00:01:00,
2013-03-03 19:06:00,37.0,10.6,29.89,NNW,338,4.0,6.0,33,0.00,,,0.00,meteohub,2013-03-04 00:06:00,
2013-03-03 19:11:00,36.9,10.4,29.89,NNE,22,3.0,6.0,33,0.00,,,0.00,meteohub,2013-03-04 00:11:00,
2013-03-03 19:16:00,36.5,10.0,29.89,NNW,338,3.0,6.0,33,0.00,,,0.00,meteohub,2013-03-04 00:16:00,
2013-03-03 19:21:00,36.3,10.0,29.89,NE,45,3.0,8.0,33,0.00,,,0.00,meteohub,2013-03-04 00:21:00,
2013-03-03 19:26:00,36.3,10.0,29.92,NNW,338,5.0,8.0,33,0.00,,,0.00,meteohub,2013-03-04 00:26:00,
2013-03-03 19:31:00,35.8,10.2,29.92,NNE,22,4.0,8.0,34,0.00,,,0.00,meteohub,2013-03-04 00:31:00,
2013-03-03 19:36:00,35.6,10.0,29.92,NNE,22,7.0,11.0,34,0.00,,,0.00,meteohub,2013-03-04 00:36:00,
2013-03-03 19:41:00,35.6,10.0,29.92,NNE,22,4.0,11.0,34,0.00,,,0.00,meteohub,2013-03-04 00:41:00,
2013-03-03 19:46:00,35.2,10.4,29.92,WSW,248,0.0,11.0,35,0.00,,,0.00,meteohub,2013-03-04 00:46:00,
2013-03-03 19:52:00,34.9,10.0,29.92,WSW,248,4.0,7.0,35,0.00,,,0.00,meteohub,2013-03-04 00:52:00,
2013-03-03 19:57:00,34.9,10.0,29.92,NNW,338,2.0,7.0,35,0.00,,,0.00,meteohub,2013-03-04 00:57:00,
2013-03-03 20:02:00,34.9,10.0,29.92,ESE,112,3.0,8.0,35,0.00,,,0.00,meteohub,2013-03-04 01:02:00,
2013-03-03 20:07:00,34.5,9.7,29.92,NNE,22,4.0,8.0,35,0.00,,,0.00,meteohub,2013-03-04 01:07:00,
2013-03-03 20:12:00,34.3,9.5,29.92,North,0,3.0,7.0,35,0.00,,,0.00,meteohub,2013-03-04 01:12:00,
2013-03-03 20:17:00,34.2,9.3,29.92,NE,45,3.0,6.0,35,0.00,,,0.00,meteohub,2013-03-04 01:17:00,
2013-03-03 20:22:00,33.8,9.7,29.92,WSW,248,0.0,6.0,36,0.00,,,0.00,meteohub,2013-03-04 01:22:00,
2013-03-03 20:27:00,33.6,9.5,29.92,NNE,22,3.0,5.0,36,0.00,,,0.00,meteohub,2013-03-04 01:27:00,
2013-03-03 20:32:00,33.6,9.5,29.92,ENE,68,3.0,5.0,36,0.00,,,0.00,meteohub,2013-03-04 01:32:00,
2013-03-03 20:37:00,33.4,10.0,29.92,NNE,22,2.0,5.0,37,0.00,,,0.00,meteohub,2013-03-04 01:37:00,
2013-03-03 20:42:00,33.4,10.0,29.92,NNE,22,3.0,5.0,37,0.00,,,0.00,meteohub,2013-03-04 01:42:00,
2013-03-03 20:47:00,33.3,9.9,29.92,NNE,22,2.0,8.0,37,0.00,,,0.00,meteohub,2013-03-04 01:47:00,
2013-03-03 20:52:00,33.1,9.7,29.92,North,0,3.0,8.0,37,0.00,,,0.00,meteohub,2013-03-04 01:52:00,
2013-03-03 20:57:00,33.3,9.9,29.95,NNW,338,4.0,7.0,37,0.00,,,0.00,meteohub,2013-03-04 01:57:00,
2013-03-03 21:02:00,33.1,9.7,29.95,NNE,22,8.0,8.0,37,0.00,,,0.00,meteohub,2013-03-04 02:02:00,
2013-03-03 21:07:00,33.3,9.1,29.95,ENE,68,5.0,10.0,36,0.00,,,0.00,meteohub,2013-03-04 02:07:00,
2013-03-03 21:12:00,33.3,9.1,29.95,NNW,338,4.0,11.0,36,0.00,,,0.00,meteohub,2013-03-04 02:12:00,
2013-03-03 21:17:00,33.1,9.0,29.95,NNW,338,4.0,11.0,36,0.00,,,0.00,meteohub,2013-03-04 02:17:00,
2013-03-03 21:22:00,33.1,9.0,29.95,NNW,338,0.0,11.0,36,0.00,,,0.00,meteohub,2013-03-04 02:22:00,
2013-03-03 21:27:00,32.9,8.8,29.95,ESE,112,4.0,8.0,36,0.00,,,0.00,meteohub,2013-03-04 02:27:00,
2013-03-03 21:32:00,32.7,8.8,29.95,NNE,22,5.0,8.0,36,0.00,,,0.00,meteohub,2013-03-04 02:32:00,
2013-03-03 21:37:00,32.5,8.6,29.95,ENE,68,4.0,8.0,36,0.00,,,0.00,meteohub,2013-03-04 02:37:00,
2013-03-03 21:42:00,32.4,8.4,29.95,ENE,68,4.0,6.0,36,0.00,,,0.00,meteohub,2013-03-04 02:42:00,
2013-03-03 21:47:00,32.4,8.4,29.95,WSW,248,5.0,9.0,36,0.00,,,0.00,meteohub,2013-03-04 02:47:00,
2013-03-03 21:52:00,32.2,8.2,29.95,North,0,6.0,9.0,36,0.00,,,0.00,meteohub,2013-03-04 02:52:00,
2013-03-03 21:57:00,32.2,8.2,29.95,NNE,22,3.0,9.0,36,0.00,,,0.00,meteohub,2013-03-04 02:57:00,
2013-03-03 22:02:00,32.2,8.2,29.95,NNW,338,4.0,9.0,36,0.00,,,0.00,meteohub,2013-03-04 03:02:00,
2013-03-03 22:07:00,32.0,8.1,29.95,North,0,3.0,9.0,36,0.00,,,0.00,meteohub,2013-03-04 03:07:00,
2013-03-03 22:12:00,31.8,7.9,29.95,SE,135,4.0,8.0,36,0.00,,,0.00,meteohub,2013-03-04 03:12:00,
2013-03-03 22:17:00,31.8,7.9,29.95,NNE,22,5.0,8.0,36,0.00,,,0.00,meteohub,2013-03-04 03:17:00,
2013-03-03 22:22:00,31.6,7.7,29.95,NE,45,3.0,6.0,36,0.00,,,0.00,meteohub,2013-03-04 03:22:00,
2013-03-03 22:27:00,31.5,7.5,29.95,NE,45,2.0,6.0,36,0.00,,,0.00,meteohub,2013-03-04 03:27:00,
2013-03-03 22:32:00,31.1,7.3,29.95,SW,225,3.0,5.0,36,0.00,,,0.00,meteohub,2013-03-04 03:32:00,
2013-03-03 22:37:00,30.9,7.2,29.95,WNW,292,2.0,4.0,36,0.00,,,0.00,meteohub,2013-03-04 03:37:00,
2013-03-03 22:42:00,30.6,7.3,29.98,West,270,0.0,4.0,37,0.00,,,0.00,meteohub,2013-03-04 03:42:00,
2013-03-03 22:47:00,30.2,7.0,29.98,North,0,0.0,4.0,37,0.00,,,0.00,meteohub,2013-03-04 03:47:00,
2013-03-03 22:52:00,29.8,7.3,29.98,NNE,22,2.0,4.0,38,0.00,,,0.00,meteohub,2013-03-04 03:52:00,
2013-03-03 22:57:00,29.8,7.3,29.98,SSW,202,0.0,3.0,38,0.00,,,0.00,meteohub,2013-03-04 03:57:00,
2013-03-03 23:02:00,29.5,7.5,29.98,SSW,202,0.0,6.0,39,0.00,,,0.00,meteohub,2013-03-04 04:02:00,
2013-03-03 23:07:00,28.9,7.2,29.98,SSW,202,0.0,6.0,39,0.00,,,0.00,meteohub,2013-03-04 04:07:00,
2013-03-03 23:12:00,28.8,7.5,29.95,SSW,202,3.0,6.0,40,0.00,,,0.00,meteohub,2013-03-04 04:12:00,
2013-03-03 23:17:00,28.8,8.1,29.95,NE,45,4.0,4.0,41,0.00,,,0.00,meteohub,2013-03-04 04:17:00,
2013-03-03 23:22:00,29.1,7.9,29.95,NNE,22,0.0,6.0,40,0.00,,,0.00,meteohub,2013-03-04 04:22:00,
2013-03-03 23:27:00,29.1,7.9,29.95,NNE,22,0.0,6.0,40,0.00,,,0.00,meteohub,2013-03-04 04:27:00,
2013-03-03 23:32:00,29.1,7.9,29.95,NNE,22,3.0,6.0,40,0.00,,,0.00,meteohub,2013-03-04 04:32:00,
2013-03-03 23:37:00,28.9,8.2,29.95,NNE,22,2.0,4.0,41,0.00,,,0.00,meteohub,2013-03-04 04:37:00,
2013-03-03 23:42:00,28.6,7.9,29.95,NNE,22,0.0,4.0,41,0.00,,,0.00,meteohub,2013-03-04 04:42:00,
2013-03-03 23:47:00,28.6,7.9,29.95,North,0,3.0,4.0,41,0.00,,,0.00,meteohub,2013-03-04 04:47:00,
2013-03-03 23:52:00,28.2,7.5,29.95,NNW,338,3.0,3.0,41,0.00,,,0.00,meteohub,2013-03-04 04:52:00,
2013-03-03 23:57:00,28.0,7.3,29.95,NW,315,0.0,3.0,41,0.00,,,0.00,meteohub,2013-03-04 04:57:00,